Location: *
(42.0175°N, 9.4056°E)
Time: 02:15:25
(UTC+00:00)

SL-08 RB Rocket - Pass Details

Date: 25 August 2019
Orbit: 646 x 685 km, 97.9° (Epoch: 23 October)

Event Time Altitude Azimuth Distance (km) Brightness Sun altitude
Exits shadow 19:16:12 15° 143° (SE) 1,741 5.3 -12.6°
Maximum altitude 19:19:42 49° 72° (ENE) 863 4.0 -13.2°
Drops below altitude 10° 19:24:09 10° 358° (N) 2,113 6.7 -13.9°
Sets 19:26:27 0° 353° (N) 3,038 7.6 -14.3°
